Page 2 of 4451 (222528 total) Prev Next
| Time | Session | Username | Method | Result |
|---|---|---|---|---|
| 2026-09-01 23:29:10 | 91e35ae5... | git | none | DENY |
| 2026-09-01 23:28:55 | 1f6acb74... | admin | password | DENY |
| 2026-09-01 23:27:48 | 0dd95b2f... | root | password | DENY |
| 2026-09-01 23:27:45 | 9fd38761... | 345gs5662d34 | password | DENY |
| 2026-09-01 23:27:42 | 9f958743... | root | password | ACCEPT |
| 2026-09-01 23:27:32 | f6928829... | d | password | DENY |
| 2026-09-01 23:27:31 | d77e9f73... | git | password | DENY |
| 2026-09-01 23:27:29 | d77e9f73... | git | none | DENY |
| 2026-09-01 23:26:31 | e36c532e... | guest | password | DENY |
| 2026-09-01 23:26:09 | 0078a590... | user | password | DENY |
| 2026-09-01 23:25:48 | 77e8433f... | git | password | DENY |
| 2026-09-01 23:25:47 | 77e8433f... | git | none | DENY |
| 2026-09-01 23:25:26 | dc3470d8... | app | password | DENY |
| 2026-09-01 23:25:23 | b6dcca92... | 345gs5662d34 | password | ACCEPT |
| 2026-09-01 23:25:19 | 0e99fd9d... | app | password | ACCEPT |
| 2026-09-01 23:24:45 | b85ceada... | root | password | DENY |
| 2026-09-01 23:24:12 | a3071766... | git | password | DENY |
| 2026-09-01 23:24:11 | a3071766... | git | none | DENY |
| 2026-09-01 23:24:05 | 29010ce0... | dev | password | DENY |
| 2026-09-01 23:23:22 | 67356cb6... | root | password | DENY |
| 2026-09-01 23:22:54 | 8fc39b63... | hr | password | DENY |
| 2026-09-01 23:22:42 | f0c90e35... | git | password | DENY |
| 2026-09-01 23:22:40 | f0c90e35... | git | none | DENY |
| 2026-09-01 23:22:01 | d4a1f271... | icp | password | DENY |
| 2026-09-01 23:21:51 | 32688dde... | user | password | DENY |
| 2026-09-01 23:21:47 | 26749890... | 345gs5662d34 | password | DENY |
| 2026-09-01 23:21:43 | 3df3aeec... | user | password | ACCEPT |
| 2026-09-01 23:21:13 | 90af3f25... | ftp | password | DENY |
| 2026-09-01 23:21:12 | 90af3f25... | ftp | none | DENY |
| 2026-09-01 23:20:39 | bd8dc1c6... | royal | password | DENY |
| 2026-09-01 23:20:30 | f82d6334... | root | password | DENY |
| 2026-09-01 23:19:40 | cb56bc4a... | ftp | password | DENY |
| 2026-09-01 23:19:39 | cb56bc4a... | ftp | none | DENY |
| 2026-09-01 23:19:14 | 6417977c... | root | password | DENY |
| 2026-09-01 23:19:14 | 4a9dc620... | admin | password | DENY |
| 2026-09-01 23:18:08 | 9d27f897... | ftp | password | DENY |
| 2026-09-01 23:18:07 | 9d27f897... | ftp | none | DENY |
| 2026-09-01 23:17:59 | 2631d384... | user13 | password | ACCEPT |
| 2026-09-01 23:17:57 | 22bdd482... | root | password | DENY |
| 2026-09-01 23:17:55 | 3567116a... | 345gs5662d34 | password | DENY |
| 2026-09-01 23:17:49 | a29f459d... | user13 | password | ACCEPT |
| 2026-09-01 23:16:49 | fe5fd0c2... | root | password | DENY |
| 2026-09-01 23:16:46 | 7f1c6666... | 345gs5662d34 | password | DENY |
| 2026-09-01 23:16:43 | a3979d8d... | root | password | ACCEPT |
| 2026-09-01 23:16:39 | 02e230e1... | dspace | password | DENY |
| 2026-09-01 23:16:38 | 02e230e1... | dspace | none | DENY |
| 2026-09-01 23:16:25 | e2feb186... | user | password | DENY |
| 2026-09-01 23:15:38 | 2e2d90a4... | help | password | DENY |
| 2026-09-01 23:15:35 | a7284ab0... | 345gs5662d34 | password | DENY |
| 2026-09-01 23:15:32 | 61af82a3... | admin | keyboard-interactive | DENY |